When you browse on this site, cookies collect data to enhance your experience and personalize the content and advertising you see.
Visit our Privacy Policy to learn more. By continuing to use the site, you agree to this use of cookies and data.
  • In United Kingdom
  • List of Countries
  • For 7 days
  • Water Temperature
  • Satellite Maps
  • Weather Map
  • Weather Widgets
  • user-avatar
    Login

    Hourly Weather Punta Gorda

    Today, 21 January, Monday

    Time Temperature Precipitation Wind Pressure Humidity
    00:00 +21°C° 0 mm 2 mps 767 mmHg 69%
    01:00 +21°C° 0 mm 2 mps 766 mmHg 69%
    02:00 +21°C° 0 mm 2 mps 766 mmHg 69%
    03:00 +21°C° 0 mm 2 mps 766 mmHg 70%
    04:00 +20°C° 0 mm 2 mps 766 mmHg 70%
    05:00 +20°C° 0 mm 2 mps 766 mmHg 71%
    06:00 +20°C° 0 mm 2 mps 767 mmHg 72%
    07:00 +20°C° 0 mm 2 mps 767 mmHg 70%
    08:00 +21°C° 0 mm 2 mps 767 mmHg 68%
    09:00 +22°C° 0 mm 1 mps 767 mmHg 67%
    10:00 +23°C° 0 mm 1 mps 767 mmHg 62%
    11:00 +25°C° 0 mm 1 mps 767 mmHg 57%
    12:00 +26°C° 0 mm 1 mps 766 mmHg 52%
    13:00 +26°C° 0 mm 1 mps 766 mmHg 53%
    14:00 +26°C° 0 mm 2 mps 765 mmHg 54%
    15:00 +26°C° 0 mm 2 mps 765 mmHg 54%
    16:00 +24°C° 0 mm 2 mps 765 mmHg 61%
    17:00 +23°C° 0 mm 2 mps 765 mmHg 67%
    18:00 +22°C° 0 mm 1 mps 765 mmHg 73%
    19:00 +21°C° 0 mm 1 mps 765 mmHg 76%
    20:00 +20°C° 0 mm 1 mps 765 mmHg 80%
    21:00 +18°C° 0 mm 0 mps 765 mmHg 84%
    22:00 +19°C° 0 mm 1 mps 765 mmHg 84%
    23:00 +19°C° 0 mm 1 mps 765 mmHg 84%

    Tomorrow, 22 January, Tuesday

    Time Temperature Precipitation Wind Pressure Humidity
    00:00 +19°C° 0 mm 1 mps 765 mmHg 85%
    01:00 +19°C° 0 mm 1 mps 764 mmHg 84%
    02:00 +19°C° 0 mm 1 mps 764 mmHg 83%
    03:00 +18°C° 0 mm 2 mps 763 mmHg 82%
    04:00 +19°C° 0 mm 2 mps 763 mmHg 82%
    05:00 +19°C° 0 mm 2 mps 763 mmHg 81%
    06:00 +19°C° 0 mm 2 mps 763 mmHg 81%
    07:00 +21°C° 0 mm 1 mps 764 mmHg 79%
    08:00 +22°C° 0 mm 1 mps 764 mmHg 77%
    09:00 +23°C° 0 mm 1 mps 764 mmHg 75%
    10:00 +25°C° 0 mm 1 mps 764 mmHg 68%
    11:00 +28°C° 0 mm 1 mps 763 mmHg 61%
    12:00 +30°C° 0 mm 2 mps 762 mmHg 54%
    13:00 +30°C° 0 mm 2 mps 762 mmHg 56%
    14:00 +30°C° 0 mm 3 mps 761 mmHg 58%
    15:00 +29°C° 0 mm 3 mps 760 mmHg 60%
    16:00 +28°C° 0 mm 3 mps 760 mmHg 67%
    17:00 +27°C° 0 mm 3 mps 760 mmHg 73%
    18:00 +26°C° 0 mm 3 mps 760 mmHg 79%
    19:00 +26°C° 0 mm 3 mps 761 mmHg 84%
    20:00 +25°C° 0 mm 2 mps 761 mmHg 88%
    21:00 +24°C° 0 mm 2 mps 762 mmHg 93%
    22:00 +24°C° 0.1 mm 2 mps 761 mmHg 95%
    23:00 +24°C° 0.1 mm 1 mps 761 mmHg 96%

    Day after tomorrow, 23 January, Wednesday

    Time Temperature Precipitation Wind Pressure Humidity
    00:00 +22°C° 0.1 mm 0 mps 761 mmHg 97%
    01:00 +24°C° 0 mm 1 mps 761 mmHg 98%
    02:00 +24°C° 0 mm 1 mps 760 mmHg 98%
    03:00 +24°C° 0 mm 1 mps 760 mmHg 99%
    04:00 +24°C° 0 mm 1 mps 760 mmHg 99%
    05:00 +23°C° 0 mm 1 mps 760 mmHg 99%
    06:00 +23°C° 0 mm 1 mps 760 mmHg 99%
    07:00 +25°C° 0 mm 1 mps 760 mmHg 94%
    08:00 +26°C° 0 mm 1 mps 761 mmHg 89%
    09:00 +25°C° 0 mm 0 mps 761 mmHg 84%
    10:00 +29°C° 0 mm 1 mps 760 mmHg 74%
    11:00 +31°C° 0 mm 1 mps 760 mmHg 63%
    12:00 +32°C° 0 mm 2 mps 759 mmHg 52%
    13:00 +32°C° 0 mm 2 mps 758 mmHg 51%
    14:00 +33°C° 0 mm 3 mps 758 mmHg 49%
    15:00 +33°C° 0 mm 4 mps 757 mmHg 48%
    16:00 +31°C° 0 mm 3 mps 757 mmHg 56%
    17:00 +29°C° 0 mm 3 mps 758 mmHg 63%
    18:00 +27°C° 0 mm 3 mps 758 mmHg 71%
    19:00 +26°C° 0 mm 3 mps 759 mmHg 77%
    20:00 +25°C° 0 mm 2 mps 759 mmHg 83%
    21:00 +25°C° 0 mm 2 mps 760 mmHg 90%
    22:00 +24°C° 0 mm 2 mps 760 mmHg 91%
    23:00 +24°C° 0 mm 2 mps 760 mmHg 91%

    24 January, Thursday

    Time Temperature Precipitation Wind Pressure Humidity
    00:00 +24°C° 0 mm 2 mps 760 mmHg 92%
    01:00 +24°C° 0.2 mm 2 mps 760 mmHg 91%
    02:00 +24°C° 0.2 mm 3 mps 760 mmHg 90%
    03:00 +24°C° 0.2 mm 3 mps 760 mmHg 89%
    04:00 +24°C° 0.2 mm 3 mps 760 mmHg 87%
    05:00 +24°C° 0.2 mm 3 mps 761 mmHg 86%
    06:00 +25°C° 0.2 mm 3 mps 761 mmHg 84%
    07:00 +26°C° 0 mm 3 mps 762 mmHg 77%
    08:00 +28°C° 0 mm 4 mps 762 mmHg 70%
    09:00 +29°C° 0 mm 4 mps 763 mmHg 62%
    10:00 +30°C° 0 mm 4 mps 763 mmHg 59%
    11:00 +32°C° 0 mm 4 mps 763 mmHg 55%
    12:00 +32°C° 0 mm 4 mps 762 mmHg 52%
    13:00 +33°C° 0 mm 4 mps 762 mmHg 51%
    14:00 +33°C° 0 mm 4 mps 761 mmHg 51%
    15:00 +33°C° 0 mm 4 mps 760 mmHg 50%
    16:00 +30°C° 0.2 mm 4 mps 761 mmHg 58%
    17:00 +28°C° 0.2 mm 4 mps 761 mmHg 65%
    18:00 +27°C° 0.2 mm 4 mps 761 mmHg 72%
    19:00 +26°C° 0.1 mm 4 mps 762 mmHg 74%
    20:00 +26°C° 0.1 mm 4 mps 763 mmHg 76%
    21:00 +25°C° 0.1 mm 3 mps 763 mmHg 78%
    22:00 +25°C° 0.1 mm 3 mps 763 mmHg 79%
    23:00 +25°C° 0.1 mm 3 mps 763 mmHg 79%

    25 January, Friday

    Time Temperature Precipitation Wind Pressure Humidity
    00:00 +24°C° 0.1 mm 3 mps 763 mmHg 80%
    01:00 +24°C° 0 mm 3 mps 762 mmHg 79%
    02:00 +24°C° 0 mm 3 mps 762 mmHg 79%
    03:00 +24°C° 0 mm 3 mps 762 mmHg 79%
    04:00 +24°C° 0 mm 3 mps 762 mmHg 79%
    05:00 +24°C° 0 mm 3 mps 762 mmHg 79%
    06:00 +24°C° 0 mm 3 mps 763 mmHg 78%
    07:00 +25°C° 0 mm 3 mps 764 mmHg 74%
    08:00 +26°C° 0 mm 3 mps 764 mmHg 70%
    09:00 +27°C° 0 mm 2 mps 765 mmHg 66%
    10:00 +28°C° 0 mm 2 mps 765 mmHg 64%
    11:00 +28°C° 0 mm 2 mps 764 mmHg 62%
    12:00 +29°C° 0 mm 3 mps 764 mmHg 60%
    13:00 +28°C° 0.2 mm 2 mps 764 mmHg 64%
    14:00 +27°C° 0.2 mm 2 mps 763 mmHg 69%
    15:00 +26°C° 0.2 mm 2 mps 763 mmHg 73%
    16:00 +25°C° 0.2 mm 2 mps 763 mmHg 76%
    17:00 +25°C° 0.2 mm 2 mps 764 mmHg 78%
    18:00 +24°C° 0.2 mm 2 mps 764 mmHg 81%
    19:00 +24°C° 0.1 mm 2 mps 765 mmHg 81%
    20:00 +24°C° 0.1 mm 2 mps 765 mmHg 82%
    21:00 +24°C° 0.1 mm 2 mps 766 mmHg 82%
    22:00 +23°C° 0.3 mm 2 mps 766 mmHg 85%
    23:00 +23°C° 0.3 mm 2 mps 766 mmHg 88%

    26 January, Saturday

    Time Temperature Precipitation Wind Pressure Humidity
    00:00 +21°C° 0.3 mm 2 mps 765 mmHg 90%
    01:00 +22°C° 0.5 mm 1 mps 765 mmHg 92%
    02:00 +22°C° 0.5 mm 1 mps 765 mmHg 94%
    03:00 +21°C° 0.5 mm 1 mps 764 mmHg 96%
    04:00 +21°C° 0.4 mm 1 mps 765 mmHg 95%
    05:00 +21°C° 0.4 mm 1 mps 765 mmHg 95%
    06:00 +20°C° 0.4 mm 1 mps 765 mmHg 94%
    07:00 +20°C° 0.3 mm 1 mps 766 mmHg 94%
    08:00 +20°C° 0.3 mm 1 mps 766 mmHg 93%
    09:00 +20°C° 0.3 mm 1 mps 766 mmHg 93%
    10:00 +23°C° 0 mm 1 mps 766 mmHg 77%
    11:00 +26°C° 0 mm 2 mps 765 mmHg 61%
    12:00 +28°C° 0 mm 2 mps 765 mmHg 45%
    13:00 +29°C° 0 mm 2 mps 764 mmHg 44%
    14:00 +29°C° 0 mm 2 mps 763 mmHg 42%
    15:00 +30°C° 0 mm 1 mps 762 mmHg 40%
    16:00 +28°C° 0 mm 2 mps 762 mmHg 47%
    17:00 +26°C° 0 mm 2 mps 762 mmHg 54%
    18:00 +25°C° 0 mm 2 mps 762 mmHg 61%
    19:00 +24°C° 0 mm 2 mps 762 mmHg 66%
    20:00 +23°C° 0 mm 1 mps 763 mmHg 70%
    21:00 +22°C° 0 mm 1 mps 763 mmHg 75%
    22:00 +22°C° 0 mm 1 mps 763 mmHg 77%
    23:00 +21°C° 0 mm 1 mps 763 mmHg 79%
    Show more